Hourly Data Report for November 03, 2019

All times are specified in Local Standard Time (LST). Add 1 hour to adjust for Daylight Saving Time where and when it is observed.

SEPT-ILES
QUEBEC
Current Station Operator: ECCC - MSC

50°13'00.000" N
66°15'00.000" W
52.60 m
7047914
71279
XZV

Download Data

Hourly Data (November 2019)
Hourly Data Report for November 3, 2019
TIME Temp Definition
°C
Dew Point Definition
°C
Rel Hum Definition
%
Wind Dir Definition
10's deg

Wind Spd Definition
km/h
Visibility Definition
km
Stn Press Definition
kPa
Hmdx Definition


Wind Chill Definition


Weather Definition


00:00 2.6 -2.0 71 13 12   101.21     LegendNANA
01:00 3.0 -0.7 77 12 12   101.11     LegendNANA
02:00 3.0 -0.7 76 12 10   101.02     LegendNANA
03:00 3.3 0.2 80 11 9   100.89     LegendNANA
04:00 3.4 0.3 80 12 10   100.80     LegendNANA
05:00 3.5 0.4 80 13 9   100.71     LegendNANA
06:00 3.5 0.8 82 12 10   100.63     LegendNANA
07:00 3.6 0.8 82 13 9   100.58     LegendNANA
08:00 3.6 0.7 81 13 10   100.53     LegendNANA
09:00 3.7 0.9 82 13 11   100.45     LegendNANA
10:00 3.7 0.9 82 14 13   100.38     LegendNANA
11:00 3.9 1.4 84 15 9   100.32     LegendNANA
12:00 4.3 1.6 82 15 7   100.23     LegendNANA
13:00 4.3 1.4 81 18 5   100.20     LegendNANA
14:00 4.3 1.3 81 25 4   100.17     LegendNANA
15:00 4.2 -0.4 72 26 5   100.20     LegendNANA
16:00 3.8 -0.5 73 26 6   100.23     LegendNANA
17:00 3.4 0.8 83 25 4   100.26     LegendNANA
18:00 2.5 0.7 88 28 6   100.30     LegendNANA
19:00 0.0 -1.1 92 31 4   100.30   -1 LegendNANA
20:00 0.5 -0.7 92 29 6   100.35     LegendNANA
21:00 2.1 -0.5 83 26 9   100.39     LegendNANA
22:00 1.7 -1.1 82 27 8   100.42     LegendNANA
23:00 1.8 -0.6 84 27 8   100.46     LegendNANA

Notes on Data Quality.

Legend

  • E = Estimated
  • M = Missing
  • NA = Not Available
Date modified: